sat.trackr.live / text

‹ back to catalog

STARLINK-11665 [DTC]

NORAD 63549 · 2025-075B

PAYLOAD ACTIVE UNKNOWN

§ Identity

Operator
Country
US
Launch date
2025-04-13
Launch site
AFETR
Launch vehicle
Mass (kg)
RCS (m²)

Purposes: comms

External: N2YO · Heavens-Above · Gunter

§ Orbital elements

Epoch: 2026-09-19T21:36:37.145952Z

Period
91.67 min
Inclination
42.9998°
Eccentricity
0.0001508
Mean motion
15.70902056 rev/d
Perigee alt
355.3 km
Apogee alt
357.3 km
Semi-major
6,734.5 km
B*
1.6710e-3
RAAN
63.1031°
Arg perigee
284.1751°
Mean anomaly
75.8949°
Rev number
8,379

§ Raw data

STARLINK-11665 [DTC]1 63549U 25075B   26262.90042993  .00220316  00000+0  16710-2 0  99902 63549  42.9998  63.1031 0001508 284.1751  75.8949 15.70902056 83790

JSON: /api/v1/satellites/63549 · /tle

For live sub-satellite position, see the globe view (requires WebGL).

§ Visibility from observer

Set your observer location to see the next 7 days of passes ≥ 10°. The values pass through the URL so the page stays shareable.

No JS? Fill the form by hand. The geolocation button needs JavaScript.